Lid_Strength_Index
13 11 12 14 14 15 20 19 22 23 20 18 15 13 11 10 9 9 10 11 11 12 12 12 12 11 10 10 9 9 9 9 9 9 9 8 7 6 6 7 8 8 8 8
15 12 12 14 13 14 15 16 17 17 18 14 11 10 10 9 9 10 11 11 11 11 11 11 11 11 11 10 10 9 9 9 9 9 9 9 8 6 7 8 8 9 9 8
18 14 14 18 16 13 14 14 14 17 15 12 11 10 10 9 10 11 11 11 12 12 12 12 12 11 11 11 10 9 9 9 9 9 9 9 8 7 7 9 9 10 10 10
17 16 24 15 11 11 12 12 12 13 12 11 10 9 9 10 11 11 11 12 12 12 12 12 12 11 11 10 10 10 9 9 9 9 9 9 9 8 8 8 9 10 10 10
19 18 15 13 11 13 14 14 11 11 10 9 9 11 11 9 10 10 11 12 12 12 12 12 12 11 11 11 11 10 10 10 10 10 10 10 10 8 8 8 9 10 9 10
18 20 20 15 12 10 12 18 12 10 10 10 11 15 14 10 10 10 11 12 13 12 12 12 12 11 12 12 11 11 10 10 10 10 10 11 10 9 8 9 9 10 10 10
24 24 16 11 11 11 17 16 11 10 11 11 12 12 10 9 9 10 12 12 12 12 12 12 12 11 12 12 12 11 10 10 10 11 11 11 11 10 9 9 9 10 11 11
20 22 21 10 11 14 13 11 11 11 10 10 10 9 9 9 10 11 12 12 12 12 13 12 12 12 12 12 11 11 10 10 11 11 11 11 10 11 10 10 9 10 10 11
16 17 12 9 11 10 10 10 11 10 9 9 9 9 9 10 10 11 12 13 12 12 12 12 12 12 12 12 11 11 11 12 12 12 12 11 11 10 11 10 9 9 10 11
15 13 11 9 9 9 9 9 9 9 9 8 9 9 10 10 11 12 12 13 12 12 13 13 12 12 12 11 11 12 13 13 13 13 13 13 12 11 11 10 9 9 10 11
14 12 10 9 8 9 9 8 8 8 8 8 9 9 9 10 11 11 12 12 12 12 12 12 12 12 12 12 12 13 13 13 13 13 13 13 13 12 11 10 8 10 10 11
16 12 10 10 7 7 9 8 8 8 9 8 8 9 9 10 11 11 12 12 12 12 12 12 12 12 12 12 13 14 14 13 13 14 14 13 14 14 10 9 8 7 8 9
12 10 9 8 7 7 8 8 8 8 8 8 8 8 9 10 11 11 11 11 12 12 12 12 12 13 12 12 13 13 14 13 14 13 13 13 13 13 16 13 10 9 8 8
10 9 10 9 9 7 7 7 7 8 8 8 8 8 9 10 11 11 11 11 11 12 13 13 13 13 13 13 13 14 14 14 14 14 16 14 16 15 15 17 19 17 10 9
9 9 8 8 9 9 8 8 9 9 9 9 8 9 10 11 12 11 11 11 11 12 14 14 13 13 12 13 13 14 15 16 15 16 15 15 15 15 16 16 17 17 14 11
11 9 9 9 9 9 9 10 10 10 9 9 9 10 10 11 13 12 12 12 12 13 14 14 14 13 13 13 14 15 15 15 16 15 15 15 15 15 16 16 16 16 14 13
12 13 11 11 10 10 10 9 9 9 9 9 10 10 11 13 13 13 13 13 13 13 13 13 15 13 14 14 14 17 17 16 16 15 15 15 15 16 16 16 17 16 16 14
10 10 10 10 9 10 10 9 9 9 9 9 10 11 13 13 12 13 13 13 13 15 14 13 13 13 13 14 14 15 16 15 15 15 15 16 16 15 16 16 16 16 17 14
9 10 10 10 9 9 9 9 9 8 9 10 12 12 12 12 13 13 13 15 16 14 13 13 13 13 13 14 14 15 15 15 15 15 15 17 16 16 16 17 17 17 17 16
10 10 10 10 9 9 9 9 9 10 10 11 12 14 14 15 15 14 13 13 12 13 12 13 13 13 13 14 15 15 15 15 15 16 16 17 18 20 18 18 17 19 21 18
10 10 10 10 10 10 11 11 11 12 12 12 12 13 13 14 15 15 14 14 13 13 12 14 13 14 13 15 16 15 15 17 18 17 19 21 22 20 21 22 21 22 22 22
11 10 12 12 11 12 12 11 11 12 12 13 15 14 16 15 16 14 14 13 13 14 13 13 13 15 15 16 15 16 16 15 16 18 20 22 23 24 24 24 23 22 23 24
10 11 11 11 11 10 11 12 12 12 12 13 14 14 13 13 13 14 14 13 13 15 13 13 14 17 17 16 16 16 16 17 18 19 20 23 23 25 24 23 23 23 24 23
10 10 11 10 10 10 11 12 12 12 12 13 14 14 13 14 16 14 14 15 15 15 14 14 15 17 17 16 17 18 18 19 19 20 20 24 25 25 24 25 23 24 24 23
10 10 10 10 10 11 10 11 12 12 13 13 13 13 13 13 14 14 14 15 16 15 14 17 17 18 16 17 17 18 19 19 20 20 21 22 23 25 25 25 25 25 25 25
10 10 10 10 10 10 11 11 12 13 14 14 14 14 15 14 13 13 13 15 15 16 15 18 18 17 17 17 18 18 19 18 20 20 21 21 22 22 24 24 25 25 25 25
10 12 11 12 11 11 11 12 13 14 13 13 13 14 14 14 14 14 16 16 16 17 18 19 19 18 17 17 18 18 16 18 20 19 20 21 23 24 24 23 25 26 26 26